This demonstration page uses our WeatherBlox Daily Observations layout. Learn more.

Left ArrowRight Arrow

Hourly Observations for May 30, 2020

Temp ( °F °C ) Dew Point ( °F °C ) Humidity (%) Winds ( mph kmh ) Pressure ( in mb ) Visibility ( mi km ) Precip ( " mm )
12:15 am 00:15 Partly Cloudy 63 17 63 17 100 100 SW 6 9 29.96 1014 10 16 N/A
12:35 am 00:35 Partly Cloudy 63 17 63 17 100 100 W 3 6 29.96 1014 10 16 N/A
12:55 am 00:55 Clear 63 17 63 17 100 100 N N/A 29.95 1014 10 16 N/A
1:15 am 01:15 Clear 63 17 63 17 100 100 SW 5 7 29.95 1014 10 16 N/A
1:35 am 01:35 Clear 61 16 61 16 100 100 WSW 3 6 29.95 1014 10 16 N/A
1:55 am 01:55 Mostly Cloudy 61 16 61 16 100 100 NW 3 6 29.95 1014 10 16 N/A
2:15 am 02:15 Partly Cloudy 61 16 61 16 100 100 NW 5 7 29.95 1014 10 16 N/A
2:35 am 02:35 Clear 61 16 61 16 100 100 N N/A 29.95 1014 10 16 N/A
2:55 am 02:55 Clear 61 16 61 16 100 100 N N/A 29.94 1014 10 16 N/A
3:15 am 03:15 Mostly Cloudy 61 16 61 16 100 100 N N/A 29.94 1014 10 16 N/A
3:35 am 03:35 Partly Cloudy 61 16 61 16 100 100 N N/A 29.95 1014 10 16 N/A
3:55 am 03:55 Partly Cloudy 61 16 61 16 100 100 N N/A 29.95 1014 10 16 N/A
4:15 am 04:15 Partly Cloudy 63 17 61 16 94 94 NW 6 9 29.95 1014 10 16 N/A
4:35 am 04:35 Clear 63 17 61 16 94 94 WNW 7 11 29.96 1014 10 16 N/A
4:55 am 04:55 Clear 63 17 61 16 94 94 NW 3 6 29.96 1014 10 16 N/A
5:15 am 05:15 Mostly Cloudy 63 17 61 16 94 94 N N/A 29.97 1015 10 16 N/A
5:35 am 05:35 Partly Cloudy 61 16 61 16 100 100 WNW 6 9 29.97 1015 10 16 N/A
5:55 am 05:55 Sunny 61 16 61 16 100 100 NW 5 7 29.97 1015 10 16 N/A
6:15 am 06:15 Sunny 61 16 61 16 100 100 WNW 3 6 29.98 1015 10 16 N/A
6:35 am 06:35 Partly Cloudy 61 16 61 16 100 100 NW 7 11 30.00 1016 10 16 N/A
6:55 am 06:55 Mostly Cloudy 61 16 61 16 100 100 N 5 7 30.00 1016 10 16 N/A
7:15 am 07:15 Partly Cloudy 63 17 61 16 94 94 N 6 9 30.00 1016 10 16 N/A
7:35 am 07:35 Mostly Cloudy 64 18 59 15 83 83 N 13 20 29.99 1016 10 16 N/A
7:55 am 07:55 Partly Cloudy 64 18 59 15 83 83 N 12 19 30.00 1016 10 16 N/A
8:15 am 08:15 Partly Cloudy 66 19 57 14 73 73 N 14 22 30.00 1016 10 16 N/A
8:35 am 08:35 Sunny 68 20 57 14 69 69 NNW 17 28 30.01 1016 10 16 N/A
8:55 am 08:55 Sunny 68 20 55 13 64 64 NNW 15 24 30.01 1016 10 16 N/A
9:15 am 09:15 Partly Cloudy 68 20 55 13 64 64 NNW 12 19 30.01 1016 10 16 N/A
9:35 am 09:35 Partly Cloudy 68 20 54 12 60 60 N 12 19 30.01 1016 10 16 N/A
9:55 am 09:55 Sunny 70 21 54 12 57 57 N 7 11 30.01 1016 10 16 N/A
10:15 am 10:15 Sunny 70 21 55 13 60 60 NNW 8 13 30.01 1016 10 16 N/A
10:35 am 10:35 Sunny 72 22 54 12 53 53 N 8 13 30.01 1016 10 16 N/A
10:55 am 10:55 Sunny 72 22 50 10 47 47 N 6 9 30.01 1016 10 16 N/A
11:15 am 11:15 Sunny 73 23 50 10 44 44 NNE 8 13 30.00 1016 10 16 N/A
11:35 am 11:35 Sunny 73 23 50 10 44 44 N 5 7 30.00 1016 10 16 N/A
11:55 am 11:55 Sunny 73 23 50 10 44 44 NNW 5 7 29.99 1015 10 16 N/A
12:15 pm 12:15 Sunny 73 23 52 11 47 47 NW 8 13 29.99 1015 10 16 N/A
12:35 pm 12:35 Sunny 75 24 52 11 44 44 NNW 9 15 29.99 1015 10 16 N/A
12:55 pm 12:55 Sunny 75 24 50 10 41 41 N 9 15 29.99 1015 10 16 N/A
1:15 pm 13:15 Sunny 77 25 52 11 42 42 NNW 5 7 29.98 1015 10 16 N/A
1:35 pm 13:35 Sunny 77 25 52 11 42 42 NW 7 11 29.96 1015 10 16 N/A
1:55 pm 13:55 Sunny 77 25 52 11 42 42 N N/A 29.96 1015 10 16 N/A
2:15 pm 14:15 Sunny 79 26 52 11 39 39 NW 8 13 29.96 1015 10 16 N/A
2:35 pm 14:35 Sunny 79 26 52 11 39 39 NNW 6 9 29.95 1014 10 16 N/A
2:55 pm 14:55 Sunny 79 26 52 11 39 39 NNW 6 9 29.95 1014 10 16 N/A
3:15 pm 15:15 Partly Cloudy 79 26 52 11 39 39 N N/A 29.94 1014 10 16 N/A
3:35 pm 15:35 Partly Cloudy 79 26 52 11 39 39 NNE 6 9 29.93 1014 10 16 N/A
3:55 pm 15:55 Sunny 81 27 54 12 39 39 N N/A 29.93 1014 10 16 N/A
4:15 pm 16:15 Sunny 81 27 52 11 37 37 N 5 7 29.92 1013 10 16 N/A
4:35 pm 16:35 Sunny 81 27 52 11 37 37 WNW 12 19 29.92 1013 10 16 N/A
4:55 pm 16:55 Partly Cloudy 79 26 50 10 37 37 NNW 10 17 29.92 1013 10 16 N/A
5:15 pm 17:15 Cloudy 79 26 52 11 39 39 NNW 5 7 29.92 1013 10 16 N/A
5:35 pm 17:35 Cloudy 79 26 50 10 37 37 N 7 11 29.92 1013 10 16 N/A
5:55 pm 17:55 Cloudy 81 27 52 11 37 37 N 7 11 29.92 1013 10 16 N/A
6:15 pm 18:15 Partly Cloudy 79 26 52 11 39 39 N 6 9 29.91 1013 10 16 N/A
6:35 pm 18:35 Mostly Cloudy 79 26 52 11 39 39 NW 5 7 29.92 1013 10 16 N/A
6:55 pm 18:55 Mostly Cloudy 79 26 52 11 39 39 NW 9 15 29.92 1013 10 16 N/A
7:15 pm 19:15 Partly Cloudy 79 26 52 11 39 39 NW 8 13 29.93 1014 10 16 N/A
7:35 pm 19:35 Sunny 77 25 52 11 42 42 NW 10 17 29.93 1014 10 16 N/A
7:55 pm 19:55 Sunny 77 25 50 10 39 39 NNW 9 15 29.93 1014 10 16 N/A
8:15 pm 20:15 Sunny 75 24 52 11 44 44 NNW 12 19 29.96 1014 10 16 N/A
8:35 pm 20:35 Clear 73 23 52 11 47 47 N 12 19 29.97 1015 10 16 N/A
8:55 pm 20:55 Clear 72 22 54 12 53 53 NNW 9 15 29.97 1015 10 16 N/A
9:15 pm 21:15 Clear 72 22 54 12 53 53 NNW 7 11 29.99 1016 10 16 N/A
9:55 pm 21:55 Clear 70 21 54 12 57 57 NNW 7 11 30.00 1016 10 16 N/A
10:15 pm 22:15 Clear 70 21 54 12 57 57 NNW 7 11 30.01 1016 10 16 N/A
10:35 pm 22:35 Clear 70 21 52 11 53 53 N 8 13 30.02 1017 10 16 N/A
10:55 pm 22:55 Clear 70 21 52 11 53 53 N 7 11 30.03 1017 10 16 N/A
11:15 pm 23:15 Clear 70 21 52 11 53 53 N 5 7 30.03 1017 10 16 N/A
11:35 pm 23:35 Clear 68 20 52 11 56 56 N 7 11 30.03 1017 10 16 N/A

Powered by AerisWeather